Zurück zum Katalog

STARLINK-34374

AktivKommunikationVLEO
NORAD 64308·PAYLOAD·🇺🇸 United States

Gestartet Jun 8, 2025 von Vandenberg Space Force Base

Loading…

Nächste Überflüge (nächste 24 Stunden)

TLE

AktuellSource: CelesTrak SupGP

Epoche: Sep 15, 2026, 02:20 UTC

1 64308C 25123T   26258.09770833 -.00048652  00000+0 -16931-2 0  2580
2 64308  69.9998  75.1973 0002902 272.4954  45.0564 15.29592958    11

Verfolge STARLINK-34374 in Echtzeit mit AllMySat

Download on the App Store